Stations météo

Publicité
Solenzara, France (7765): Température de l'air & dewpoint: 14.09.2019 06:00:00 - 20.09.2019 06:00:00 (CEST)Solenzara, France (7765): Température de l'air 5cm: 14.09.2019 06:00:00 - 20.09.2019 06:00:00 (CEST)Solenzara, France (7765): Température de l'air -20cm: 14.09.2019 06:00:00 - 20.09.2019 06:00:00 (CEST)Solenzara, France (7765): Vitesse du vent & gusts: 14.09.2019 06:00:00 - 20.09.2019 06:00:00 (CEST)Solenzara, France (7765): Direction du vent: 14.09.2019 06:00:00 - 20.09.2019 06:00:00 (CEST)Solenzara, France (7765): reduced air pressure: 14.09.2019 06:00:00 - 20.09.2019 06:00:00 (CEST)Solenzara, France (7765): visibility: 14.09.2019 06:00:00 - 20.09.2019 06:00:00 (CEST)Solenzara, France (7765): Ensoleillement: 14.09.2019 06:00:00 - 20.09.2019 06:00:00 (CEST)Solenzara, France (7765): Quantités de précipitations: 14.09.2019 06:00:00 - 20.09.2019 06:00:00 (CEST)
Date & Time tt [°C] td [°C] tt 5cm [°C] tt -20cm [°C] ff [km/h] ff [knt] fx [km/h] fx [knt] dd ppp [hPa] vv [km] sd [min] rr [mm]
20.09.2019 06:00:00 - - - - - - - - - - - - -
20.09.2019 05:00:00 21,0 17,2 20,6 25,7 15 8 22 12 NNW 1019,3 51 0 0,0
20.09.2019 04:00:00 21,2 18,0 20,8 25,8 15 8 28 15 NNW 1019,2 45 0 0,0
20.09.2019 03:00:00 21,4 18,6 19,8 26,0 14 7 22 12 NNW 1019,3 24 0 0,0
20.09.2019 02:00:00 20,6 18,5 19,7 26,1 10 5 16 8 W 1019,1 18 0 0,0
20.09.2019 01:00:00 20,7 18,3 19,8 26,2 9 5 16 9 W 1019,0 20 0 0,0
20.09.2019 00:00:00 20,8 18,4 19,8 26,4 10 5 18 10 W 1018,7 23 0 0,0
19.09.2019 23:00:00 20,9 17,9 20,1 26,5 10 5 19 10 W 1018,8 28 0 0,0
19.09.2019 22:00:00 21,0 18,4 19,9 26,6 10 5 18 10 W 1018,4 28 0 0,0
19.09.2019 21:00:00 20,9 17,7 19,8 26,7 10 5 19 10 W 1017,5 42 0 0,0
19.09.2019 20:00:00 21,2 18,4 20,1 26,8 11 6 17 9 W 1016,8 45 0 0,0
19.09.2019 19:00:00 22,0 19,5 20,8 26,8 8 4 16 9 W 1016,1 28 14 0,0
19.09.2019 18:00:00 21,5 18,7 19,9 26,8 8 4 23 13 W 1016,2 52 5 0,6
19.09.2019 17:00:00 20,7 18,5 19,9 26,7 12 7 36 19 W 1016,8 5 0 13,4
19.09.2019 16:00:00 25,3 21,2 22,7 26,5 6 4 14 7 NE 1015,9 18 26 1,4
19.09.2019 15:00:00 25,9 20,5 23,8 26,3 10 6 22 12 E 1015,8 16 10 0,0
19.09.2019 14:00:00 27,3 20,6 31,0 26,1 15 8 23 12 E 1015,5 20 60 0,0
19.09.2019 13:00:00 26,9 19,5 32,8 26,1 12 6 21 11 E 1015,4 31 60 0,0
19.09.2019 12:00:00 26,7 20,3 32,8 26,1 14 8 21 11 E 1015,6 18 60 0,0
19.09.2019 11:00:00 26,4 19,3 31,6 26,0 12 6 18 10 E 1015,8 20 60 0,0
19.09.2019 10:00:00 25,7 18,9 27,2 26,1 7 4 10 6 ENE 1015,7 33 36 0,0
19.09.2019 09:00:00 23,8 18,2 23,1 26,2 3 2 13 7 W 1015,4 20 6 0,0
19.09.2019 08:00:00 22,4 18,2 21,4 26,3 7 4 11 6 W 1015,2 20 0 0,0
19.09.2019 07:00:00 21,5 17,3 21,3 26,4 6 4 14 8 W 1014,5 27 0 0,0
19.09.2019 06:00:00 21,4 17,8 20,3 26,4 7 4 11 6 W 1014,3 23 0 0,0
19.09.2019 05:00:00 21,0 18,4 20,0 26,5 3 2 13 7 NW 1014,2 18 0 0,0
19.09.2019 04:00:00 21,0 18,2 19,8 26,6 7 4 11 6 W 1014,4 19 0 0,0
19.09.2019 03:00:00 22,0 18,4 20,5 26,6 4 2 11 6 W 1014,7 24 0 0,0
19.09.2019 02:00:00 22,6 19,0 21,4 26,7 9 5 15 8 WSW 1015,0 23 0 0,0
19.09.2019 01:00:00 22,8 19,8 21,8 26,7 5 3 10 5 W 1015,4 22 0 0,0
19.09.2019 00:00:00 23,6 20,5 22,2 26,7 3 2 6 3 NW 1015,3 23 0 0,0
18.09.2019 23:00:00 23,9 20,6 23,1 26,7 3 1 8 5 W 1015,4 25 0 0,0
18.09.2019 22:00:00 24,2 20,9 23,9 26,7 6 3 8 5 NNW 1015,6 27 0 0,0
18.09.2019 21:00:00 24,1 20,8 23,0 26,6 5 3 6 4 NNE 1015,4 27 0 0,0
18.09.2019 20:00:00 23,9 21,0 22,8 26,6 3 2 6 3 NE 1014,7 25 0 0,0
18.09.2019 19:00:00 24,8 21,3 24,7 26,5 4 2 11 6 E 1014,5 27 4 0,0
18.09.2019 18:00:00 25,4 21,1 26,3 26,4 6 3 15 8 ENE 1014,3 32 26 0,0
18.09.2019 17:00:00 26,1 21,3 27,9 26,2 10 6 16 8 ENE 1014,2 32 19 0,0
18.09.2019 16:00:00 26,4 20,9 28,3 26,1 9 5 16 9 E 1014,4 20 22 0,0
18.09.2019 15:00:00 25,8 20,6 27,9 26,0 8 4 18 10 ENE 1015,0 31 4 0,0
18.09.2019 14:00:00 25,7 20,9 27,9 25,9 9 5 26 14 E 1015,2 26 19 0,0
18.09.2019 13:00:00 26,4 20,5 28,7 25,9 20 11 27 15 ENE 1014,9 44 53 0,0
18.09.2019 12:00:00 27,3 20,4 29,8 25,9 16 8 23 13 ENE 1015,1 47 52 0,0
18.09.2019 11:00:00 26,2 19,1 28,3 25,9 12 7 22 12 NE 1015,2 30 47 0,0
18.09.2019 10:00:00 25,9 18,6 27,2 26,0 14 7 21 12 N 1015,4 46 60 0,0
18.09.2019 09:00:00 24,3 18,2 21,5 26,1 11 6 16 9 N 1015,1 20 60 0,0
18.09.2019 08:00:00 20,3 14,9 18,6 26,3 8 4 14 8 W 1015,0 38 7 0,0
18.09.2019 07:00:00 19,5 14,7 18,7 26,4 10 5 16 9 W 1014,5 42 0 0,0
18.09.2019 06:00:00 19,7 15,1 18,7 26,5 9 5 19 11 W 1014,5 40 0 0,0
18.09.2019 05:00:00 19,7 15,1 18,9 26,6 10 6 18 10 WNW 1014,5 42 0 0,0
18.09.2019 04:00:00 20,0 15,4 19,1 26,7 11 6 17 9 W 1014,5 42 0 0,0
18.09.2019 03:00:00 20,3 15,9 19,3 26,8 9 5 17 9 W 1015,0 40 0 0,0
18.09.2019 02:00:00 20,5 16,3 19,5 26,9 10 6 16 9 W 1015,2 36 0 0,0
18.09.2019 01:00:00 21,0 17,0 19,9 26,9 6 4 14 7 WNW 1015,1 34 0 0,0
18.09.2019 00:00:00 21,3 17,5 20,4 27,0 7 4 12 6 WNW 1015,0 32 0 0,0
17.09.2019 23:00:00 22,1 18,3 21,0 27,0 7 4 12 6 NW 1015,1 29 0 0,0
17.09.2019 22:00:00 22,7 18,7 21,5 27,0 6 4 13 7 NW 1015,1 32 0 0,0
17.09.2019 21:00:00 23,1 19,3 21,3 26,9 5 3 7 4 WNW 1015,0 35 0 0,0
17.09.2019 20:00:00 24,2 20,5 21,3 26,8 0 0 6 3 N 1014,8 20 0 0,0
17.09.2019 19:00:00 25,1 20,6 24,8 26,7 7 4 14 7 SSE 1014,7 43 44 0,0
17.09.2019 18:00:00 26,6 20,7 27,4 26,6 9 5 15 8 SE 1014,7 35 60 0,0
17.09.2019 17:00:00 27,3 19,1 30,4 26,4 9 5 16 9 SE 1014,8 38 60 0,0
17.09.2019 16:00:00 27,7 20,8 31,5 26,1 11 6 19 10 ESE 1015,1 34 60 0,0
17.09.2019 15:00:00 26,7 20,5 31,8 25,9 13 7 24 13 SSE 1015,6 20 60 0,0
17.09.2019 14:00:00 26,7 21,0 32,0 25,8 13 7 21 11 SE 1015,8 20 60 0,0
17.09.2019 13:00:00 26,7 21,0 32,6 25,7 13 7 18 10 ESE 1016,3 30 60 0,0
17.09.2019 12:00:00 26,6 21,1 33,2 25,7 12 6 19 11 E 1016,8 20 60 0,0
17.09.2019 11:00:00 26,6 20,2 32,0 25,7 10 6 18 10 E 1017,0 20 60 0,0
17.09.2019 10:00:00 25,8 20,4 27,5 25,8 7 4 15 8 NNE 1017,1 20 60 0,0
17.09.2019 09:00:00 24,4 18,3 22,2 25,9 10 6 14 8 N 1017,0 36 55 0,0
17.09.2019 08:00:00 20,7 15,0 18,6 26,0 8 5 13 7 W 1016,7 16 8 0,0
17.09.2019 07:00:00 19,8 14,8 17,5 26,1 9 5 12 6 W 1016,6 52 0 0,0
17.09.2019 06:00:00 20,2 15,0 19,0 26,2 9 5 13 7 W 1016,7 55 0 0,0
17.09.2019 05:00:00 20,4 15,2 18,3 26,3 8 5 13 7 W 1016,8 55 0 0,0
17.09.2019 04:00:00 20,7 15,7 18,4 26,4 3 2 7 4 NW 1016,8 45 0 0,0
17.09.2019 03:00:00 20,9 15,4 19,9 26,5 6 3 13 7 WNW 1016,8 52 0 0,0
17.09.2019 02:00:00 21,2 15,7 20,2 26,6 7 4 13 7 W 1017,1 50 0 0,0
17.09.2019 01:00:00 21,4 15,9 20,5 26,6 8 5 14 8 W 1017,5 50 0 0,0
17.09.2019 00:00:00 21,8 16,1 20,7 26,7 8 4 12 7 W 1017,8 52 0 0,0
16.09.2019 23:00:00 21,9 16,6 20,9 26,7 7 4 11 6 W 1018,0 46 0 0,0
16.09.2019 22:00:00 22,4 17,3 21,4 26,7 6 3 9 5 W 1017,8 40 0 0,0
16.09.2019 21:00:00 23,1 18,6 21,8 26,6 4 2 9 5 WNW 1017,4 31 0 0,0
16.09.2019 20:00:00 24,2 20,3 23,0 26,6 8 4 16 9 S 1017,2 34 0 0,0
16.09.2019 19:00:00 25,1 19,9 25,0 26,5 12 6 20 11 SSE 1017,3 37 51 0,0
16.09.2019 18:00:00 25,9 19,5 26,9 26,3 15 8 24 13 S 1017,4 32 60 0,0
16.09.2019 17:00:00 26,1 19,7 28,4 26,1 18 10 26 14 SSE 1017,7 36 60 0,0
16.09.2019 16:00:00 26,5 20,1 29,5 25,9 18 10 26 14 SSE 1018,0 20 60 0,0
16.09.2019 15:00:00 26,6 20,0 31,4 25,8 16 9 24 13 SSE 1018,6 42 60 0,0
16.09.2019 14:00:00 26,7 20,3 32,2 25,7 14 7 21 11 SSE 1019,1 52 60 0,0
16.09.2019 13:00:00 26,4 18,5 33,3 25,6 13 7 21 11 SSE 1019,6 60 60 0,0
16.09.2019 12:00:00 26,1 18,2 30,8 25,6 12 7 20 11 SE 1019,9 60 60 0,0
16.09.2019 11:00:00 25,4 18,1 26,8 25,7 9 5 14 7 ESE 1020,2 54 32 0,0
16.09.2019 10:00:00 23,9 15,4 24,7 25,7 3 2 7 4 W 1020,4 60 0 0,0
16.09.2019 09:00:00 23,1 14,9 22,0 25,8 5 3 11 6 W 1020,1 17 20 0,0
16.09.2019 08:00:00 21,3 14,5 19,9 25,9 7 4 11 6 W 1019,8 60 3 0,0
16.09.2019 07:00:00 20,6 14,3 19,6 26,0 8 4 12 6 W 1019,7 60 0 0,0
16.09.2019 06:00:00 20,2 14,1 18,7 26,1 8 5 14 7 W 1019,6 60 0 0,0
16.09.2019 05:00:00 19,8 14,2 18,4 26,3 10 5 13 7 W 1020,1 60 0 0,0
16.09.2019 04:00:00 19,6 14,4 18,4 26,4 8 5 13 7 W 1020,4 60 0 0,0
16.09.2019 03:00:00 20,1 14,7 18,9 26,5 9 5 13 7 W 1020,6 60 0 0,0
16.09.2019 02:00:00 20,6 14,7 19,4 26,6 9 5 14 8 W 1020,8 60 0 0,0
16.09.2019 01:00:00 20,9 15,2 19,6 26,6 7 4 11 6 W 1021,0 60 0 0,0
16.09.2019 00:00:00 21,5 15,3 20,1 26,7 6 3 14 7 W 1021,2 60 0 0,0
15.09.2019 23:00:00 21,9 15,7 20,5 26,7 8 4 13 7 W 1021,4 60 0 0,0
15.09.2019 22:00:00 22,1 16,6 20,9 26,7 7 4 11 6 W 1021,8 60 0 0,0
15.09.2019 21:00:00 23,1 18,4 21,1 26,6 5 3 8 4 WNW 1021,9 60 0 0,0
15.09.2019 20:00:00 23,7 19,0 21,6 26,5 0 0 7 4 N 1021,7 60 0 0,0
15.09.2019 19:00:00 24,4 19,0 24,3 26,4 4 2 9 5 ENE 1021,8 60 0 0,0
15.09.2019 18:00:00 25,2 19,1 26,3 26,2 4 2 9 5 ESE 1022,0 60 0 0,0
15.09.2019 17:00:00 25,9 17,3 28,0 26,0 4 2 14 7 E 1022,0 45 53 0,0
15.09.2019 16:00:00 26,5 18,1 30,1 25,8 8 5 16 9 ESE 1022,2 60 60 0,0
15.09.2019 15:00:00 26,3 18,9 30,6 25,6 11 6 18 10 ESE 1022,7 56 60 0,0
15.09.2019 14:00:00 26,9 19,0 31,4 25,4 12 7 21 12 E 1023,2 50 60 0,0
15.09.2019 13:00:00 27,3 18,9 33,0 25,3 13 7 24 13 ENE 1023,7 20 60 0,0
15.09.2019 12:00:00 27,5 19,3 32,3 25,2 14 8 22 12 E 1024,0 60 60 0,0
15.09.2019 11:00:00 27,1 16,4 31,5 25,3 13 7 20 11 ENE 1024,4 60 60 0,0
15.09.2019 10:00:00 26,9 17,1 29,4 25,4 13 7 19 10 NNE 1024,4 60 60 0,0
15.09.2019 09:00:00 23,6 11,3 21,7 25,5 2 1 8 4 NW 1024,4 53 60 0,0
15.09.2019 08:00:00 20,9 10,1 18,9 25,6 6 3 17 9 NNW 1024,2 60 29 0,0
15.09.2019 07:00:00 20,1 9,3 18,9 25,7 11 6 20 11 W 1023,8 60 0 0,0
15.09.2019 06:00:00 20,1 9,3 18,9 25,9 12 7 19 10 W 1023,6 60 0 0,0
15.09.2019 05:00:00 20,3 9,8 19,0 26,0 11 6 18 10 W 1023,8 60 0 0,0
15.09.2019 04:00:00 20,6 9,8 18,9 26,1 10 5 15 8 W 1023,8 60 0 0,0
15.09.2019 03:00:00 20,4 9,9 17,9 26,2 9 5 14 7 W 1023,8 60 0 0,0
15.09.2019 02:00:00 20,9 9,8 18,9 26,3 9 5 14 8 W 1024,3 60 0 0,0
15.09.2019 01:00:00 20,8 12,5 18,5 26,4 5 3 12 7 W 1024,5 60 0 0,0
15.09.2019 00:00:00 20,9 11,8 17,2 26,5 6 3 9 5 W 1024,5 60 0 0,0
14.09.2019 23:00:00 21,7 10,5 19,2 26,5 5 3 11 6 WNW 1024,6 60 0 0,0
14.09.2019 22:00:00 23,2 12,8 21,5 26,5 7 4 22 12 W 1024,6 60 0 0,0
14.09.2019 21:00:00 23,7 13,6 22,3 26,5 11 6 19 10 WNW 1024,4 60 0 0,0
14.09.2019 20:00:00 24,3 12,9 22,8 26,4 9 5 16 9 W 1024,3 60 0 0,0
14.09.2019 19:00:00 26,4 12,8 24,7 26,3 4 2 7 4 NW 1024,2 60 38 0,0
14.09.2019 18:00:00 25,5 16,1 25,0 26,1 5 3 11 6 ESE 1024,4 60 26 0,0
14.09.2019 17:00:00 26,5 14,9 27,3 25,9 6 3 16 9 ESE 1024,3 41 37 0,0
14.09.2019 16:00:00 27,7 15,4 31,1 25,7 10 6 20 11 E 1024,9 60 60 0,0
14.09.2019 15:00:00 27,5 14,5 30,9 25,5 12 6 21 12 E 1025,4 60 60 0,0
14.09.2019 14:00:00 27,1 16,7 30,0 25,3 10 5 21 11 E 1026,0 60 60 0,0
14.09.2019 13:00:00 27,0 16,3 32,0 25,2 13 7 27 15 ENE 1026,3 60 60 0,0
14.09.2019 12:00:00 28,0 16,3 32,0 25,2 16 9 25 14 E 1026,3 60 60 0,0
14.09.2019 11:00:00 27,7 14,0 30,9 25,2 13 7 23 12 NE 1026,4 60 60 0,0
14.09.2019 10:00:00 28,4 11,0 30,5 25,3 16 9 22 12 N 1026,5 60 60 0,0
14.09.2019 09:00:00 25,1 11,3 21,6 25,4 5 3 16 9 W 1026,5 59 60 0,0
14.09.2019 08:00:00 21,6 9,8 19,3 25,6 10 6 19 11 W 1026,3 58 37 0,0
14.09.2019 07:00:00 20,3 9,5 19,1 25,7 12 6 22 12 W 1026,0 60 0 0,0
14.09.2019 06:00:00 20,4 9,3 19,1 25,8 13 7 22 12 W 1025,7 60 0 0,0

tt = Température de l'air
td = dewpoint
tt 5cm = Température de l'air 5cm
tt -20cm = Température de l'air -20cm
ff = Vitesse du vent
fx = gusts
dd = Direction du vent
ppp = reduced air pressure
vv = visibility
sd = Ensoleillement
rr = Quantités de précipitations

stations d'obs. à proximité